MOZHAYETS 4 (RS-22) (27939 NORAD) Tracking and Keplerian Element Data

This shows tracking and keplerian element data for the satellite.

Feedback or suggestion? Click here.




ElementValue
Catalog27939
NameMOZHAYETS 4 (RS-22)
Epoch Orbit12544
Epoch Day286.89302573
Epoch Year2024
RAAN85.1258
Inclination98.3049
Eccentricity0.0012492
Argument of Perigee51.9841
Mean Anonmoly105.1549
Mean Motion14.7087083
Decay Rate5.569E-05
L11 27939U 03042A 24286.89302573 .00005569 00000+0 91743-3 0 9999
L22 27939 98.3049 85.1258 0012492 51.9841 105.1549 14.70870830125449



Live tracking and technical data element details for MOZHAYETS 4 (RS-22) (NORAD 27939). MOZHAYETS 4 (RS-22) can be tracked NOW for your location showing map with azimuth and elevation plus other details from your city location.







IsCatalogInMostPopularTable: catalog: 27939, numindb: 384
Update: records affected: 1



GetName: 27939 MOZHAYETS 4 (RS-22)

Hit Count: updated at: Fri, 24 Jan 2025 23:13:35 GMT